Location: Trebic
(49.2170°N, 15.8830°E)
Time: 13:27:51
(UTC+02:00)

Transit 2A Rocket - Pass Details

Date: 27 July 2019
Orbit: 590 x 913 km, 66.7° (Epoch: 20 August)

Event Time Altitude Azimuth Distance (km) Brightness Sun altitude
Rises 08:20:13 0° 321° (NW) 3,289 7.9 27.0°
Reaches altitude 10° 08:23:56 10° 345° (NNW) 2,280 7.4 27.6°
Maximum altitude 08:26:41 14° 17° (NNE) 1,946 7.4 28.0°
Drops below altitude 10° 08:29:18 10° 50° (NE) 2,164 8.1 28.5°
Sets 08:32:39 0° 76° (ENE) 3,007 9.2 29.0°
